Change the Weather History Date:

Sunday, August 18, 2013

  Actual Average Record
Temperature  
Mean Temperature 91 °F -  
Max Temperature 101 °F 90 °F 109 °F (2003)
Min Temperature 81 °F 68 °F 69 °F (2004)
Cooling Degree Days 26    
Growing Degree Days 41 (Base 50)    
Moisture  
Dew Point 59 °F    
Average Humidity 38    
Maximum Humidity 74    
Minimum Humidity 13    
Precipitation  
Precipitation 0.00 in 0.01 in - ()
Sea Level Pressure  
Sea Level Pressure 29.70 in    
Wind  
Wind Speed 8 mph ()    
Max Wind Speed 16 mph    
Max Gust Speed -    
Visibility 6.2 miles    
Events      
Averages and records for this station are not official NWS values.
T = Trace of Precipitation, MM = Missing Value Source: Averaged Metar Reports

Daily Weather History Graph

Daily Weather History Graph

Search for Another Location

Airport or City:

Trip Planner

Search our weather history database for the weather conditions in past years. The results will help you decide how hot, cold, wet, or windy it might be!

Date:

Astronomy

Aug. 18, 2013 Rise Set
Actual Time 6:16 AM EEST 7:44 PM EEST
Civil Twilight 5:48 AM EEST 8:11 PM EEST
Nautical Twilight 5:15 AM EEST 8:44 PM EEST
Astronomical Twilight 4:41 AM EEST 9:18 PM EEST
Moon 5:32 PM EEST (8/18) 3:05 AM EEST (8/18)
Length of Visible Light 14h 22m
Length of Day
13h 28m
Waxing Gibbous, 90% of the Moon is Illuminated
Aug 18
Waxing Gibbous
Aug 21
Full
Aug 28
Last Quarter
Sep 5
New
Sep 12
First Quarter

Hourly Weather History & Observations

Time (EEST) Temp. Heat Index Dew Point Humidity Pressure Visibility Wind Dir Wind Speed Gust Speed Precip Events Conditions
12:20 AM 82.4 °F 84.6 °F 66.2 °F 58% 29.71 in - Variable 5.8 mph - N/A   Clear
12:50 AM 82.4 °F 86.3 °F 69.8 °F 66% 29.71 in - North 8.1 mph - N/A   Clear
1:20 AM 82.4 °F 86.3 °F 69.8 °F 66% 29.71 in - NNW 5.8 mph - N/A   Clear
1:50 AM 84.2 °F 83.8 °F 59.0 °F 42% 29.71 in - NW 10.4 mph - N/A   Clear
2:20 AM 86.0 °F 84.5 °F 55.4 °F 35% 29.71 in - NW 11.5 mph - N/A   Clear
2:50 AM 86.0 °F 84.5 °F 55.4 °F 35% 29.71 in - NW 9.2 mph - N/A   Clear
3:00 AM 85 °F - 55 °F 25% 29.69 in 6 mi NW 9.2 mph - -  
3:20 AM 86.0 °F 84.5 °F 55.4 °F 35% 29.71 in - NW 11.5 mph - N/A   Clear
3:50 AM 86.0 °F 84.5 °F 55.4 °F 35% 29.71 in - NW 11.5 mph - N/A   Clear
4:20 AM 86.0 °F 84.5 °F 55.4 °F 35% 29.71 in - NW 11.5 mph - N/A   Clear
4:50 AM 84.2 °F 83.0 °F 55.4 °F 37% 29.71 in - NW 10.4 mph - N/A   Clear
5:20 AM 84.2 °F 83.0 °F 55.4 °F 37% 29.71 in - NW 9.2 mph - N/A   Clear
5:50 AM 84.2 °F 83.0 °F 55.4 °F 37% 29.71 in - NW 11.5 mph - N/A   Clear
6:20 AM 84.2 °F 83.0 °F 55.4 °F 37% 29.71 in - NW 8.1 mph - N/A   Clear
6:50 AM 82.4 °F 81.7 °F 55.4 °F 39% 29.71 in - NW 8.1 mph - N/A   Clear
7:20 AM 84.2 °F 83.0 °F 55.4 °F 37% 29.71 in - NW 10.4 mph - N/A   Clear
7:50 AM 86.0 °F 84.5 °F 55.4 °F 35% 29.71 in - NW 10.4 mph - N/A   Clear
8:20 AM 87.8 °F 86.1 °F 55.4 °F 33% 29.71 in - NW 10.4 mph - N/A   Clear
8:50 AM 89.6 °F 87.3 °F 53.6 °F 29% 29.71 in - NW 11.5 mph - N/A   Clear
9:00 AM 90 °F - 54 °F 20% 29.70 in 6 mi NW 11.5 mph - -  
9:20 AM 93.2 °F 90.8 °F 53.6 °F 26% 29.71 in - NNW 12.7 mph - N/A   Clear
9:50 AM 93.2 °F 90.8 °F 53.6 °F 26% 29.71 in - NNW 11.5 mph - N/A   Clear
10:20 AM 95.0 °F 92.7 °F 53.6 °F 25% 29.71 in - North 9.2 mph - N/A   Clear
10:50 AM 96.8 °F 94.4 °F 53.6 °F 23% 29.71 in - NNW 6.9 mph - N/A   Clear
11:20 AM 98.6 °F 96.4 °F 53.6 °F 22% 29.71 in - Variable 5.8 mph - N/A   Clear
11:50 AM 98.6 °F 96.4 °F 53.6 °F 22% 29.71 in 6.2 mi Variable 3.5 mph - N/A   Partly Cloudy
12:20 PM 102.2 °F 100.4 °F 53.6 °F 20% 29.68 in 6.2 mi Variable 4.6 mph - N/A   Partly Cloudy
12:50 PM 98.6 °F 96.4 °F 53.6 °F 22% 29.68 in 6.2 mi South 11.5 mph - N/A   Partly Cloudy
1:20 PM 98.6 °F 97.2 °F 55.4 °F 24% 29.68 in 6.2 mi South 9.2 mph - N/A   Partly Cloudy
1:50 PM 100.4 °F 98.8 °F 55.4 °F 22% 29.68 in 6.2 mi South 12.7 mph - N/A   Partly Cloudy
2:20 PM 98.6 °F 97.6 °F 57.2 °F 25% 29.65 in 6.2 mi SSW 16.1 mph - N/A   Scattered Clouds
2:50 PM 98.6 °F 96.4 °F 53.6 °F 22% 29.65 in 6.2 mi SSW 16.1 mph - N/A   Scattered Clouds
3:00 PM 99 °F - 53 °F 13% 29.64 in 6 mi SSW 16.1 mph - -   Partly Cloudy
3:20 PM 98.6 °F 96.4 °F 53.6 °F 22% 29.65 in 6.2 mi South 15.0 mph - N/A   Scattered Clouds
3:50 PM 96.8 °F 95.1 °F 55.4 °F 25% 29.68 in 6.2 mi West 11.5 mph - N/A   Scattered Clouds
4:20 PM 93.2 °F 91.3 °F 55.4 °F 28% 29.68 in 6.2 mi North 12.7 mph - N/A   Mostly Cloudy
4:50 PM 93.2 °F 91.9 °F 57.2 °F 30% 29.68 in 6.2 mi North 15.0 mph - N/A   Scattered Clouds
5:20 PM 95.0 °F 92.7 °F 53.6 °F 25% 29.68 in 6.2 mi NE 8.1 mph - N/A   Scattered Clouds
5:50 PM 91.4 °F 92.1 °F 62.6 °F 38% 29.68 in 6.2 mi ENE 9.2 mph - N/A   Scattered Clouds
6:20 PM 87.8 °F 97.6 °F 75.2 °F 66% 29.68 in 6.2 mi SSE 5.8 mph - N/A   Scattered Clouds
6:50 PM 86.0 °F 96.9 °F 77.0 °F 74% 29.68 in 6.2 mi South 4.6 mph - N/A   Scattered Clouds
7:20 PM 86.0 °F 96.9 °F 77.0 °F 74% 29.71 in 6.2 mi SSW 5.8 mph - N/A   Scattered Clouds
7:50 PM 86.0 °F 96.9 °F 77.0 °F 74% 29.71 in 6.2 mi WSW 5.8 mph - N/A   Scattered Clouds
8:20 PM 86.0 °F 96.9 °F 77.0 °F 74% 29.71 in 6.2 mi WSW 5.8 mph - N/A   Scattered Clouds
8:50 PM 86.0 °F 95.1 °F 75.2 °F 70% 29.71 in 6.2 mi WNW 3.5 mph - N/A   Scattered Clouds
9:00 PM 86 °F - 75 °F 63% 29.69 in 6 mi WNW 3.5 mph - -   Partly Cloudy
9:20 PM 87.8 °F 91.4 °F 68.0 °F 52% 29.71 in 6.2 mi NNW 6.9 mph - N/A   Scattered Clouds
9:50 PM 87.8 °F 87.1 °F 59.0 °F 38% 29.71 in 6.2 mi NW 8.1 mph - N/A   Partly Cloudy
10:20 PM 87.8 °F 86.5 °F 57.2 °F 35% 29.71 in 6.2 mi NNW 9.2 mph - N/A   Partly Cloudy
10:50 PM 87.8 °F 86.5 °F 57.2 °F 35% 29.71 in 6.2 mi NW 9.2 mph - N/A   Partly Cloudy
11:20 PM 86.0 °F 84.9 °F 57.2 °F 37% 29.71 in 6.2 mi NW 6.9 mph - N/A   Partly Cloudy
11:50 PM 86.0 °F 84.5 °F 55.4 °F 35% 29.71 in 6.2 mi NW 9.2 mph - N/A   Partly Cloudy